FHV2 KHVN-KSAV

Flight info

Callsign FHV2
Flight time N/A
Altitude 38000
Route BEADS EMJAY Q167 ZJAAY Q97 SAWED GUILD Q409 SESUE LGRHD SOOOP
Aircraft A320/M-SDE3FGHIRWY/LB1

Departure

Time N/A
Airport Tweed New Haven Airport (KHVN)

Arrival

Time 2026-04-28 02:42
Airport Savannah Hilton Head International Airport (KSAV)
Time Latitude Longitude Altitude Speed Heading
2026-04-28 01:19 39.10264 -74.35412 37128 ft 490 kts 229°
2026-04-28 01:19 39.07691 -74.38193 37366 ft 489 kts 229°
2026-04-28 01:20 39.05083 -74.41012 37601 ft 489 kts 229°
2026-04-28 01:20 39.02483 -74.43824 37811 ft 488 kts 229°
2026-04-28 01:20 38.99883 -74.46636 38038 ft 488 kts 229°
2026-04-28 01:20 38.97276 -74.49445 38254 ft 488 kts 229°
2026-04-28 01:21 38.92067 -74.55100 38332 ft 493 kts 230°
2026-04-28 01:21 38.86966 -74.61046 38333 ft 496 kts 232°
2026-04-28 01:22 38.81919 -74.67100 38338 ft 497 kts 231°
2026-04-28 01:22 38.76863 -74.73073 38329 ft 497 kts 231°
2026-04-28 01:23 38.71654 -74.78931 38328 ft 500 kts 228°
2026-04-28 01:23 38.67137 -74.83582 38324 ft 502 kts 226°
2026-04-28 01:24 38.60721 -74.90047 38332 ft 502 kts 226°
2026-04-28 01:24 38.55290 -74.95643 38337 ft 501 kts 227°
2026-04-28 01:25 38.49938 -75.01311 38347 ft 499 kts 229°
2026-04-28 01:25 38.44697 -75.07096 38344 ft 499 kts 227°
2026-04-28 01:26 38.39180 -75.12539 38347 ft 503 kts 224°
2026-04-28 01:26 38.33489 -75.17742 38352 ft 503 kts 223°
2026-04-28 01:27 38.27825 -75.22970 38345 ft 502 kts 224°
2026-04-28 01:27 38.22228 -75.28264 38338 ft 501 kts 224°
2026-04-28 01:28 38.16649 -75.33572 38331 ft 501 kts 224°
2026-04-28 01:28 38.11096 -75.38816 38342 ft 501 kts 224°
2026-04-28 01:29 38.05500 -75.44085 38346 ft 500 kts 224°
2026-04-28 01:29 37.99817 -75.49219 38349 ft 502 kts 221°
2026-04-28 01:30 37.94034 -75.54183 38348 ft 502 kts 221°
2026-04-28 01:30 37.88238 -75.59119 38346 ft 501 kts 221°
2026-04-28 01:31 37.82449 -75.64057 38338 ft 502 kts 220°
2026-04-28 01:31 37.76515 -75.68655 38330 ft 504 kts 217°
2026-04-28 01:32 37.70428 -75.73077 38329 ft 504 kts 216°
2026-04-28 01:32 37.64365 -75.77519 38322 ft 504 kts 217°
2026-04-28 01:33 37.58338 -75.82038 38326 ft 503 kts 217°
2026-04-28 01:33 37.52520 -75.86846 38319 ft 493 kts 227°
2026-04-28 01:34 37.47502 -75.92661 38316 ft 489 kts 230°
2026-04-28 01:34 37.42534 -75.98440 38326 ft 490 kts 230°
2026-04-28 01:35 37.37518 -76.04244 38326 ft 490 kts 230°
2026-04-28 01:35 37.32507 -76.10039 38322 ft 489 kts 230°
2026-04-28 01:36 37.27508 -76.15824 38324 ft 488 kts 230°
2026-04-28 01:36 37.22509 -76.21602 38324 ft 488 kts 230°
2026-04-28 01:37 37.17516 -76.27366 38323 ft 488 kts 229°
2026-04-28 01:37 37.12521 -76.33115 38327 ft 487 kts 229°
2026-04-28 01:38 37.07524 -76.38848 38328 ft 487 kts 229°
2026-04-28 01:38 37.02525 -76.44577 38332 ft 487 kts 229°
2026-04-28 01:39 36.97561 -76.50251 38329 ft 486 kts 229°
2026-04-28 01:39 36.93379 -76.55030 38341 ft 486 kts 229°
2026-04-28 01:40 36.87574 -76.61646 38338 ft 486 kts 229°
2026-04-28 01:40 36.82584 -76.67327 38339 ft 485 kts 229°
2026-04-28 01:41 36.77602 -76.73004 38338 ft 484 kts 229°
2026-04-28 01:41 36.72612 -76.78660 38343 ft 484 kts 229°
2026-04-28 01:42 36.67617 -76.84295 38344 ft 485 kts 229°
2026-04-28 01:42 36.63467 -76.88982 38343 ft 484 kts 229°
2026-04-28 01:43 36.58474 -76.94613 38339 ft 484 kts 229°
2026-04-28 01:43 36.52671 -77.01144 38327 ft 484 kts 228°
2026-04-28 01:44 36.48487 -77.05852 38317 ft 484 kts 228°
2026-04-28 01:44 36.43518 -77.11423 38321 ft 484 kts 228°
2026-04-28 01:45 36.38699 -77.16813 38329 ft 484 kts 228°
2026-04-28 01:45 36.33689 -77.22408 38331 ft 484 kts 228°
2026-04-28 01:46 36.28602 -77.27921 38332 ft 486 kts 225°
2026-04-28 01:46 36.23266 -77.33117 38319 ft 488 kts 223°
2026-04-28 01:47 36.17890 -77.38166 38304 ft 487 kts 223°
2026-04-28 01:47 36.12529 -77.43291 38300 ft 487 kts 224°
2026-04-28 01:48 36.07198 -77.48489 38305 ft 487 kts 224°
2026-04-28 01:48 36.01871 -77.53679 38317 ft 487 kts 223°
2026-04-28 01:49 35.96530 -77.58830 38320 ft 487 kts 223°
2026-04-28 01:49 35.91179 -77.63973 38324 ft 487 kts 223°
2026-04-28 01:50 35.85874 -77.69077 38315 ft 486 kts 223°
2026-04-28 01:50 35.80547 -77.74196 38320 ft 485 kts 223°
2026-04-28 01:51 35.75423 -77.79123 38315 ft 486 kts 223°
2026-04-28 01:51 35.70094 -77.84232 38293 ft 485 kts 223°
2026-04-28 01:52 35.64761 -77.89327 38299 ft 485 kts 223°
2026-04-28 01:52 35.59422 -77.94414 38317 ft 485 kts 223°
2026-04-28 01:53 35.54088 -77.99499 38326 ft 486 kts 223°
2026-04-28 01:53 35.48750 -78.04578 38321 ft 485 kts 223°
2026-04-28 01:54 35.43406 -78.09656 38322 ft 486 kts 222°
2026-04-28 01:54 35.38083 -78.14685 38299 ft 486 kts 222°
2026-04-28 01:55 35.32733 -78.19740 38290 ft 486 kts 222°
2026-04-28 01:55 35.27375 -78.24801 38286 ft 486 kts 222°
2026-04-28 01:56 35.22033 -78.29846 38284 ft 485 kts 222°
2026-04-28 01:56 35.16680 -78.34895 38296 ft 485 kts 222°
2026-04-28 01:57 35.11361 -78.39891 38306 ft 485 kts 221°
2026-04-28 01:57 35.06001 -78.44909 38312 ft 486 kts 221°
2026-04-28 01:58 35.00628 -78.49925 38309 ft 486 kts 221°
2026-04-28 01:58 34.95263 -78.54947 38304 ft 486 kts 221°
2026-04-28 01:59 34.89895 -78.59962 38291 ft 486 kts 221°
2026-04-28 01:59 34.86224 -78.63391 38275 ft 485 kts 221°
2026-04-28 02:00 34.80896 -78.68369 38285 ft 486 kts 221°
2026-04-28 02:00 34.75517 -78.73344 38288 ft 486 kts 220°
2026-04-28 02:01 34.70141 -78.78318 38294 ft 485 kts 221°
2026-04-28 02:01 34.64776 -78.83294 38285 ft 485 kts 220°
2026-04-28 02:02 34.59417 -78.88253 38292 ft 484 kts 220°
2026-04-28 02:02 34.54050 -78.93205 38294 ft 484 kts 220°
2026-04-28 02:03 34.48684 -78.98146 38292 ft 484 kts 220°
2026-04-28 02:03 34.43315 -79.03077 38298 ft 484 kts 220°
2026-04-28 02:04 34.37856 -79.07876 38295 ft 485 kts 218°
2026-04-28 02:04 34.32316 -79.12535 38281 ft 484 kts 217°
2026-04-28 02:05 34.26852 -79.17137 38286 ft 483 kts 218°
2026-04-28 02:05 34.21505 -79.22027 38297 ft 481 kts 222°
2026-04-28 02:06 34.16410 -79.27202 38298 ft 481 kts 223°
2026-04-28 02:06 34.11294 -79.32419 38295 ft 481 kts 222°
2026-04-28 02:07 34.06116 -79.37542 38294 ft 482 kts 221°
2026-04-28 02:07 34.00900 -79.42616 38293 ft 482 kts 221°
2026-04-28 02:08 33.95675 -79.47705 38293 ft 482 kts 221°
2026-04-28 02:08 33.90465 -79.52793 38288 ft 482 kts 221°
2026-04-28 02:09 33.84999 -79.57435 38286 ft 484 kts 208°
2026-04-28 02:09 33.78932 -79.60890 38291 ft 485 kts 207°
2026-04-28 02:10 33.72836 -79.64348 38297 ft 484 kts 207°
2026-04-28 02:10 33.66747 -79.67809 38300 ft 483 kts 207°
2026-04-28 02:11 33.60671 -79.71262 38300 ft 483 kts 207°
2026-04-28 02:11 33.54593 -79.74703 38279 ft 478 kts 207°
2026-04-28 02:12 33.48647 -79.78052 37903 ft 468 kts 207°
2026-04-28 02:12 33.45744 -79.79689 37644 ft 466 kts 207°
2026-04-28 02:12 33.42815 -79.81344 37380 ft 466 kts 207°
2026-04-28 02:13 33.39884 -79.83000 37109 ft 466 kts 207°
2026-04-28 02:13 33.36955 -79.84652 36845 ft 466 kts 207°
2026-04-28 02:13 33.34018 -79.86306 36595 ft 466 kts 207°
2026-04-28 02:13 33.31078 -79.87958 36341 ft 466 kts 207°
2026-04-28 02:14 33.28142 -79.89606 36090 ft 467 kts 207°
2026-04-28 02:14 33.25200 -79.91256 35844 ft 467 kts 207°
2026-04-28 02:14 33.22262 -79.92905 35596 ft 467 kts 207°
2026-04-28 02:14 33.19314 -79.94561 35350 ft 468 kts 207°
2026-04-28 02:15 33.13423 -79.97864 34872 ft 468 kts 207°
2026-04-28 02:15 33.10473 -79.99512 34635 ft 469 kts 207°
2026-04-28 02:15 33.07517 -80.01161 34394 ft 469 kts 207°
2026-04-28 02:16 33.04565 -80.02809 34151 ft 469 kts 207°
2026-04-28 02:16 33.01605 -80.04464 33890 ft 470 kts 207°
2026-04-28 02:16 32.98640 -80.06122 33619 ft 470 kts 207°
2026-04-28 02:16 32.95677 -80.07778 33353 ft 471 kts 207°
2026-04-28 02:17 32.92748 -80.09410 33099 ft 471 kts 207°
2026-04-28 02:17 32.89776 -80.11060 32822 ft 472 kts 207°
2026-04-28 02:17 32.86784 -80.12720 31768 ft 477 kts 207°
2026-04-28 02:17 32.83744 -80.14410 30622 ft 485 kts 207°
2026-04-28 02:18 32.80658 -80.16124 29398 ft 491 kts 207°
2026-04-28 02:18 32.77595 -80.17823 28866 ft 481 kts 207°
2026-04-28 02:18 32.74571 -80.19493 28101 ft 477 kts 207°
2026-04-28 02:18 32.71579 -80.21144 27376 ft 472 kts 207°
2026-04-28 02:19 32.68616 -80.22781 26658 ft 468 kts 207°
2026-04-28 02:19 32.65677 -80.24408 25943 ft 464 kts 207°
2026-04-28 02:19 32.62758 -80.26027 25244 ft 461 kts 207°
2026-04-28 02:19 32.59936 -80.27783 24553 ft 456 kts 216°
2026-04-28 02:20 32.57435 -80.30037 23893 ft 448 kts 226°
2026-04-28 02:20 32.55303 -80.32685 23178 ft 441 kts 232°
2026-04-28 02:20 32.53297 -80.35349 22590 ft 435 kts 231°
2026-04-28 02:20 32.51282 -80.38005 22009 ft 430 kts 231°
2026-04-28 02:21 32.49290 -80.40622 21467 ft 424 kts 231°
2026-04-28 02:21 32.47323 -80.43206 20940 ft 419 kts 231°
2026-04-28 02:21 32.45386 -80.45753 20435 ft 413 kts 231°
2026-04-28 02:21 32.43475 -80.48267 19939 ft 408 kts 231°
2026-04-28 02:22 32.41590 -80.50749 19448 ft 403 kts 231°
2026-04-28 02:22 32.39719 -80.53217 18961 ft 400 kts 231°
2026-04-28 02:22 32.37965 -80.55701 18437 ft 395 kts 238°
2026-04-28 02:22 32.36592 -80.58482 17912 ft 388 kts 248°
2026-04-28 02:23 32.35549 -80.61405 17394 ft 383 kts 250°
2026-04-28 02:23 32.34528 -80.64300 16751 ft 383 kts 250°
2026-04-28 02:23 32.33491 -80.67222 16096 ft 384 kts 249°
2026-04-28 02:23 32.32455 -80.70127 15584 ft 381 kts 249°
2026-04-28 02:24 32.31427 -80.73006 15059 ft 379 kts 250°
2026-04-28 02:24 32.30406 -80.75873 14528 ft 377 kts 249°
2026-04-28 02:24 32.29384 -80.78734 13963 ft 377 kts 249°
2026-04-28 02:24 32.28367 -80.81574 13402 ft 374 kts 248°
2026-04-28 02:25 32.27411 -80.84245 12883 ft 371 kts 248°
2026-04-28 02:25 32.26409 -80.87048 12334 ft 368 kts 248°
2026-04-28 02:25 32.25419 -80.89827 11780 ft 366 kts 248°
2026-04-28 02:25 32.24433 -80.92588 11209 ft 363 kts 248°
2026-04-28 02:26 32.23457 -80.95324 10686 ft 359 kts 247°
2026-04-28 02:26 32.22504 -80.97990 10537 ft 344 kts 247°
2026-04-28 02:26 32.21590 -81.00541 10424 ft 331 kts 247°
2026-04-28 02:26 32.20710 -81.02994 10316 ft 318 kts 247°
2026-04-28 02:27 32.19864 -81.05355 10197 ft 307 kts 247°
2026-04-28 02:27 32.19051 -81.07622 9985 ft 300 kts 247°
2026-04-28 02:27 32.18490 -81.09983 9697 ft 294 kts 266°
2026-04-28 02:27 32.18480 -81.12378 9322 ft 290 kts 272°
2026-04-28 02:28 32.18545 -81.14717 8694 ft 287 kts 272°
2026-04-28 02:28 32.18611 -81.17060 8048 ft 285 kts 272°
2026-04-28 02:28 32.18672 -81.19392 7410 ft 282 kts 272°
2026-04-28 02:28 32.18729 -81.21701 6802 ft 280 kts 272°
2026-04-28 02:29 32.18785 -81.23989 6144 ft 278 kts 272°
2026-04-28 02:29 32.18848 -81.26259 5495 ft 276 kts 272°
2026-04-28 02:29 32.18928 -81.28517 4828 ft 275 kts 272°
2026-04-28 02:29 32.19017 -81.30751 4169 ft 271 kts 272°
2026-04-28 02:30 32.19111 -81.32912 3894 ft 253 kts 272°
2026-04-28 02:30 32.19201 -81.34904 3772 ft 233 kts 273°
2026-04-28 02:30 32.19287 -81.36768 3468 ft 224 kts 272°
2026-04-28 02:30 32.19374 -81.38570 3215 ft 216 kts 272°
2026-04-28 02:31 32.19467 -81.40334 2843 ft 215 kts 272°
2026-04-28 02:31 32.19563 -81.42101 2475 ft 216 kts 273°
2026-04-28 02:31 32.19580 -81.43858 2114 ft 213 kts 258°
2026-04-28 02:31 32.19008 -81.45424 1989 ft 208 kts 229°
2026-04-28 02:32 32.17895 -81.46481 1999 ft 206 kts 201°
2026-04-28 02:32 32.16510 -81.46841 1999 ft 203 kts 177°
2026-04-28 02:32 32.15145 -81.46527 1994 ft 201 kts 154°
2026-04-28 02:32 32.14007 -81.45616 1994 ft 197 kts 132°
2026-04-28 02:33 32.13278 -81.44293 1993 ft 193 kts 110°
2026-04-28 02:33 32.13040 -81.42806 2013 ft 181 kts 91°
2026-04-28 02:33 32.13031 -81.41337 2004 ft 178 kts 91°
2026-04-28 02:33 32.13021 -81.39881 2000 ft 178 kts 91°
2026-04-28 02:34 32.13010 -81.38424 1997 ft 177 kts 91°
2026-04-28 02:34 32.13000 -81.36992 2009 ft 164 kts 91°
2026-04-28 02:34 32.12991 -81.35734 1998 ft 147 kts 91°
2026-04-28 02:34 32.12984 -81.34950 1999 ft 142 kts 91°
2026-04-28 02:35 32.12975 -81.33800 1959 ft 139 kts 91°
2026-04-28 02:35 32.12965 -81.32660 1831 ft 138 kts 91°
2026-04-28 02:35 32.12957 -81.31532 1677 ft 137 kts 91°
2026-04-28 02:35 32.12948 -81.30405 1491 ft 137 kts 90°
2026-04-28 02:36 32.12945 -81.29281 1311 ft 137 kts 90°
2026-04-28 02:36 32.12944 -81.28164 1129 ft 136 kts 90°
2026-04-28 02:36 32.12924 -81.27041 932 ft 137 kts 92°
2026-04-28 02:36 32.12906 -81.25917 717 ft 138 kts 90°
2026-04-28 02:37 32.12903 -81.24785 520 ft 139 kts 90°
2026-04-28 02:37 32.12891 -81.23646 313 ft 139 kts 89°
2026-04-28 02:37 32.12884 -81.22506 163 ft 139 kts 89°
2026-04-28 02:37 32.12872 -81.21370 44 ft 134 kts 90°
2026-04-28 02:38 32.12874 -81.20290 157 ft 146 kts 89°
2026-04-28 02:38 32.12872 -81.18970 741 ft 171 kts 89°
2026-04-28 02:38 32.12879 -81.17500 1529 ft 183 kts 90°
2026-04-28 02:38 32.13100 -81.16061 2228 ft 176 kts 66°
2026-04-28 02:39 32.13923 -81.14980 2555 ft 187 kts 32°
2026-04-28 02:39 32.15209 -81.14716 2700 ft 195 kts 352°
2026-04-28 02:39 32.16516 -81.15193 2787 ft 201 kts 342°
2026-04-28 02:39 32.17757 -81.15778 2607 ft 180 kts 338°
2026-04-28 02:40 32.18794 -81.16497 2382 ft 171 kts 307°
2026-04-28 02:40 32.19030 -81.17810 1955 ft 172 kts 264°
2026-04-28 02:40 32.18754 -81.19143 1600 ft 166 kts 233°
2026-04-28 02:40 32.17852 -81.19879 1279 ft 157 kts 193°
2026-04-28 02:41 32.16768 -81.20046 851 ft 159 kts 178°
2026-04-28 02:41 32.15655 -81.20027 473 ft 160 kts 178°
2026-04-28 02:41 32.14579 -81.20026 273 ft 152 kts 175°
2026-04-28 02:41 32.13527 -81.20011 83 ft 149 kts 178°
2026-04-28 02:42 32.12607 -81.20003 43 ft 100 kts 179°
2026-04-28 02:42 32.12183 -81.20005 47 ft 26 kts 188°
2026-04-28 02:42 32.12157 -81.20104 51 ft 9 kts 269°
2026-04-28 02:42 32.12183 -81.20195 53 ft 13 kts 344°
2026-04-28 02:43 32.12318 -81.20198 53 ft 26 kts
2026-04-28 02:43 32.12525 -81.20221 53 ft 34 kts 338°
2026-04-28 02:43 32.12761 -81.20333 49 ft 39 kts 359°
2026-04-28 02:43 32.13055 -81.20327 53 ft 43 kts 360°
2026-04-28 02:44 32.13361 -81.20328 54 ft 43 kts
2026-04-28 02:44 32.13446 -81.20397 54 ft 17 kts 281°
2026-04-28 02:44 32.13553 -81.20487 54 ft 21 kts 352°
2026-04-28 02:44 32.13659 -81.20575 52 ft 20 kts 297°
2026-04-28 02:45 32.13671 -81.20716 54 ft 8 kts 269°
2026-04-28 02:45 32.13649 -81.20761 54 ft 7 kts 192°
2026-04-28 02:45 32.13609 -81.20762 54 ft 2 kts 181°
2026-04-28 02:45 32.13607 -81.20762 54 ft 0 kts 181°